珠海一号 02星 (ZHUHAI-1 02 (CAS-4B))

导读 | 星芒AI

ZHUHAI-1 02(CAS-4B)是中国珠海一号卫星星座的第二颗卫星,主要用于高分辨率遥感成像。该卫星由长光卫星技术有限公司研制,于2020年发射,具备多光谱和高空间分辨率的成像能力,广泛应用于农业监测、城市规划、环境评估等领域。作为珠海一号系列的重要组成部分,CAS-4B与其它卫星协同工作,提升了中国在商业遥感领域的数据获取能力和应用水平。

基本信息
目录编号:
42759
目录名称:
ZHUHAI-1 02
国际标识:
2017-034B
轨道中心:
EARTH
卫星名称:
珠海一号 02星
卫星全名:
珠海一号 02星 (ZHUHAI-1 02 (CAS-4B))
卫星状态:
已陨落 最后检测时间 2025-10-15
发射日期:
2017-06-15 UTC
国别 :
中国 (CN)
星等 :
--
轨道信息
数据来源 国际轨道数据
星历时间: 2025-10-14T07:20:17+0800
轨道信息已过期62天
半长轴: 6582.3km
偏心率: 0.0008257
轨道倾角: 42.989°
近地点辐角 129.394°
升交点赤经 273.326°
平近点角 230.768°
近地点: 198.729km
远地点: 209.601km
周期: 88.578分钟
每日圈数: 16.256845
详细信息
平衡模式:
三轴稳定
覆盖范围:
全球
运营商:
珠海欧比特宇航科技股份有限公司
运营商所在国:
中国
制造商(研发单位):
珠海欧比特宇航科技股份有限公司
制造商所在国:
中国
使用方式:
暂无
卫星简介
珠海一号(Zhuhai-1)卫星星座是由珠海欧比特宇航科技股份有限公司发射并运营的商业遥感微纳卫星星座,整个星座由34颗遥感卫星组成,分别是2颗视频试验卫星、10颗视频卫星、10颗高光谱卫星、2颗高分光学卫星、2颗SAR卫星和8颗红外卫星。该卫星仍在工作。